Location: Liscomb Game Sanctuary
(45.1633°N, 62.5575°W)
Time: 23:42:37

CENTAUR R/B - Pass Details

Date: 22 February 2018
Orbit: 810 x 1378 km, 63.5° (Epoch: 20 March)

Event Time Altitude Azimuth Distance (km) Brightness Sun altitude
Rises 19:38:56 0° 227° (SW) 3,479 6.0 -20.3°
Reaches altitude 10° 19:41:19 10° 231° (SW) 2,601 5.3 -20.7°
Maximum altitude 19:47:21 65° 312° (NW) 1,099 2.9 -21.7°
Drops below altitude 10° 19:54:22 10° 35° (NE) 3,002 4.8 -23.0°
Enters shadow 19:54:48 - 36° (NE) 3,157 4.9 -23.0°
